[[{"header":{"parameterUnit":"m.s-1","parameterCategory":1,"la1":30.2991,"la2":30.254,"lo1":-89.0895,"lo2":-89.0444,"dy":0.0017,"dx":0.0017,"nx":28,"ny":28,"refTime":"2024-03-19T09:00:00:Z","depth":0,"parameterNumber":2,"parameterNumberName":"U-component_of_WINDS"},"data":[0,0,0,0,0,0,0,0,0,0,0,0,0,0,0,0,0,0,0,0,0,0,0,0,0,0,0,0,0,0,0,0,0,0,0,0,0,0,0,0,0,0,0,0,0,0,0,0,0,0,0,0,0,0,0,0,0,0,1.4283,1.4283,0,1.4356,1.4357,1.4358,1.4376,1.4376,1.4375,1.4375,1.4452,1.4454,1.4457,0,0,0,0,0,0,0,0,0,0,0,0,0,1.4157,1.4159,1.4283,1.4283,1.4284,1.4356,1.4357,1.4358,1.4376,1.4376,1.4375,1.4375,1.4451,1.4454,1.4457,0,0,0,0,0,0,0,0,0,0,0,0,0,1.4219,1.416,1.4282,1.4302,1.4304,1.4356,1.4357,1.4359,1.4377,1.4376,1.4375,1.4374,1.445,1.4454,1.4457,1.4495,0,0,1.4469,1.4471,0,0,0,0,0,0,0,0,1.4216,1.4224,1.4298,1.4301,1.4304,1.4356,1.4341,1.4405,1.4377,1.4349,1.4375,1.4374,1.4421,1.4427,1.4442,1.4499,1.4502,1.4469,1.4472,1.4473,1.4474,0,0,0,0,0,0,0,1.4211,1.4221,1.4312,1.4299,1.4303,1.4307,1.4315,1.4353,1.4388,1.4352,1.4353,1.4361,1.4422,1.4439,1.4444,1.4503,1.4469,1.4473,1.4475,1.4476,1.4592,1.4593,0,0,0,0,0,0,1.4204,1.4217,1.4309,1.4314,1.4257,1.431,1.4319,1.434,1.4388,1.4394,1.4362,1.4362,1.4433,1.444,1.4447,1.4493,1.4473,1.4477,1.4479,1.4592,1.4593,1.4594,0,0,0,0,0,0,1.4201,1.4212,1.4307,1.4266,1.4278,1.4313,1.4337,1.4342,1.4359,1.4396,1.4402,1.4373,1.4432,1.4442,1.4483,1.4496,1.4478,1.4482,1.4591,1.4592,1.4593,1.4586,0,0,0,0,0,0,1.4197,1.4211,1.4225,1.4266,1.428,1.4341,1.4338,1.4344,1.4365,1.4366,1.4407,1.4414,1.4433,1.4477,1.4486,1.4501,1.4485,1.459,1.4591,1.4593,1.4585,1.4587,1.4588,0,0,0,0,0,1.4193,1.4221,1.4226,1.4237,1.43,1.4341,1.435,1.4371,1.4366,1.4381,1.4404,1.4412,1.4493,1.4481,1.4492,1.4508,1.4589,1.4591,1.4593,1.4585,1.4587,1.4588,0,0,0,0,0,0,1.4182,1.4227,1.4233,1.4275,1.4304,1.4344,1.4364,1.4372,1.4404,1.4403,1.4428,1.4437,1.4476,1.4496,1.4482,1.4546,1.4541,1.4545,1.4531,1.4533,1.4535,1.4529,1.4488,0,0,0,0,0,1.4184,1.4214,1.4252,1.4286,1.43,1.4329,1.4349,1.4362,1.4393,1.4406,1.4432,1.4462,1.4494,1.4515,1.4547,1.4588,1.4597,1.4605,1.4606,1.4607,1.461,1.4632,1.4635,1.46,1.46,1.46,0,0,1.419,1.4218,1.4236,1.4285,1.4309,1.4339,1.434,1.4372,1.4395,1.4411,1.445,1.4471,1.4506,1.4547,1.4566,1.4565,1.4622,1.461,1.461,1.4613,1.4634,1.4638,1.4641,1.4601,1.4601,1.4601,0,0,1.4215,1.424,1.427,1.4294,1.433,1.4349,1.4356,1.4395,1.4409,1.4449,1.4461,1.4488,1.4543,1.4567,1.4587,1.4619,1.4627,1.4629,1.4637,1.4658,1.4661,1.4663,1.4674,1.4677,1.4632,1.4632,1.4632,0,1.4218,1.4264,1.4285,1.4316,1.4337,1.4352,1.4382,1.4404,1.4449,1.4463,1.446,1.4528,1.4554,1.4599,1.4607,1.4623,1.4631,1.4624,1.4659,1.4661,1.4664,1.4674,1.4678,1.4632,1.4632,1.4632,1.4632,0,1.4264,1.4296,1.4316,1.4357,1.438,1.4411,1.4436,1.4457,1.4468,1.4487,1.4527,1.4557,1.4595,1.4607,1.4619,1.4654,1.4651,1.4654,1.4649,1.4667,1.4677,1.4681,1.4632,1.4632,1.4632,1.4632,0,0,1.4285,1.4337,1.4344,1.4362,1.4402,1.4427,1.4458,1.4494,1.451,1.4541,1.4566,1.4612,1.4614,1.4636,1.465,1.4669,1.4691,1.4668,1.467,1.467,1.473,1.4727,1.4731,1.4696,1.4697,1.4698,1.4726,0,1.4315,1.437,1.4389,1.4435,1.4463,1.4477,1.4504,1.4531,1.455,1.4577,1.4598,1.4629,1.4629,1.4642,1.4661,1.4684,1.4703,1.4682,1.472,1.4721,1.471,1.4737,1.4735,1.476,1.4731,1.4731,1.4732,0,1.4356,1.4386,1.4434,1.4469,1.4481,1.4505,1.4538,1.4564,1.4595,1.4607,1.4631,1.4644,1.4676,1.467,1.4714,1.47,1.4716,1.473,1.4731,1.4735,1.4727,1.474,1.4769,1.4773,1.4738,1.4738,1.4737,0,1.4365,1.4417,1.4452,1.4467,1.4509,1.4525,1.4544,1.4574,1.4594,1.4623,1.4636,1.4669,1.4687,1.4712,1.4733,1.4727,1.4775,1.4771,1.4785,1.4785,1.4794,1.4793,1.4825,1.4807,1.4806,1.4806,1.4806,0,1.4395,1.4424,1.4456,1.4477,1.4509,1.4531,1.4562,1.4582,1.4608,1.4633,1.4648,1.4671,1.4698,1.4725,1.4742,1.4775,1.4783,1.4794,1.4798,1.4792,1.479,1.4803,1.4801,1.4807,1.4807,1.4807,1.4807,0,1.441,1.4433,1.4472,1.4508,1.4518,1.454,1.4571,1.4592,1.461,1.4642,1.4651,1.468,1.4712,1.4736,1.4777,1.4789,1.4824,1.4829,1.4813,1.4815,1.4828,1.4826,1.4868,1.4874,1.4852,1.4852,1.4852,0,1.4427,1.4449,1.4488,1.4505,1.4523,1.4552,1.4571,1.4593,1.4613,1.4649,1.4666,1.4699,1.4726,1.4776,1.4802,1.4833,1.4838,1.4851,1.4843,1.4836,1.4837,1.4835,1.4837,1.4852,1.4852,1.4852,1.4852,0,1.4455,1.4465,1.4493,1.4524,1.4547,1.4573,1.4599,1.4613,1.464,1.4661,1.4694,1.4715,1.4757,1.4789,1.4822,1.4841,1.4851,1.4854,1.4859,1.4853,1.4843,1.4847,1.4815,1.4853,1.4853,1.4853,1.4853,1.4853,1.4471,1.4491,1.452,1.455,1.4572,1.4596,1.4617,1.4638,1.4665,1.47,1.4712,1.4745,1.4774,1.4821,1.484,1.4866,1.4866,1.4873,1.4875,1.4876,1.4875,1.4839,1.4872,1.4872,1.4872,1.4872,1.4872,0,1.4498,1.4518,1.4545,1.4581,1.4604,1.4611,1.464,1.4659,1.4688,1.4714,1.474,1.4777,1.4808,1.4835,1.4866,1.4882,1.4887,1.489,1.4888,1.4892,1.4874,1.4866,1.4885,1.4885,1.4885,1.4885,1.4885,1.4885,1.4515,1.4548,1.4561,1.4605,1.4625,1.4657,1.4673,1.4694,1.4715,1.4755,1.4781,1.4798,1.4824,1.4858,1.4886,1.4893,1.4904,1.4905,1.4913,1.4895,1.4894,1.4892,1.4885,1.4908,1.4908,1.493,1.493,1.493]},{"header":{"parameterUnit":"m.s-1","parameterCategory":1,"la1":30.2991,"la2":30.254,"lo1":-89.0895,"lo2":-89.0444,"dy":0.0017,"dx":0.0017,"nx":28,"ny":28,"refTime":"2024-03-19T09:00:00:Z","depth":0,"parameterNumber":3,"parameterNumberName":"V-component_of_WINDS"},"data":[0,0,0,0,0,0,0,0,0,0,0,0,0,0,0,0,0,0,0,0,0,0,0,0,0,0,0,0,0,0,0,0,0,0,0,0,0,0,0,0,0,0,0,0,0,0,0,0,0,0,0,0,0,0,0,0,0,0,1.8683,1.8683,0,1.8642,1.8641,1.8641,1.8618,1.8618,1.8618,1.8618,1.8574,1.8573,1.8572,0,0,0,0,0,0,0,0,0,0,0,0,0,1.874,1.874,1.8683,1.8683,1.8682,1.8642,1.8641,1.8641,1.8618,1.8618,1.8618,1.8618,1.8575,1.8573,1.8572,0,0,0,0,0,0,0,0,0,0,0,0,0,1.8709,1.8739,1.8684,1.8666,1.8664,1.8642,1.8641,1.8641,1.8618,1.8618,1.8618,1.8618,1.8575,1.8573,1.8572,1.8563,0,0,1.8567,1.8566,0,0,0,0,0,0,0,0,1.8711,1.8707,1.8669,1.8667,1.8665,1.8635,1.8645,1.8615,1.8618,1.8636,1.8618,1.8618,1.8595,1.8591,1.8584,1.8561,1.8559,1.8567,1.8566,1.8565,1.8564,0,0,0,0,0,0,0,1.8713,1.8708,1.8667,1.8669,1.8666,1.866,1.8655,1.8639,1.8616,1.8634,1.8632,1.8628,1.8593,1.8585,1.8582,1.8558,1.8567,1.8565,1.8564,1.8563,1.8523,1.8523,0,0,0,0,0,0,1.8718,1.871,1.8668,1.8666,1.8688,1.8659,1.8654,1.8645,1.8616,1.8612,1.8628,1.8627,1.8588,1.8584,1.8581,1.8566,1.8565,1.8563,1.8562,1.8523,1.8523,1.8523,0,0,0,0,0,0,1.872,1.8715,1.867,1.8688,1.8681,1.8658,1.8648,1.8644,1.8636,1.8611,1.8607,1.8624,1.8588,1.8583,1.8567,1.8565,1.8563,1.8561,1.8523,1.8523,1.8523,1.8539,0,0,0,0,0,0,1.8721,1.8715,1.8713,1.8688,1.8681,1.8658,1.8648,1.8643,1.8633,1.8632,1.8607,1.8602,1.8588,1.8569,1.8565,1.8562,1.856,1.8523,1.8523,1.8523,1.8538,1.8539,1.854,0,0,0,0,0,1.8723,1.8719,1.8713,1.8708,1.8677,1.8658,1.8654,1.8637,1.8633,1.8629,1.8613,1.8603,1.8566,1.8568,1.8563,1.8559,1.8523,1.8523,1.8523,1.8538,1.8539,1.854,0,0,0,0,0,0,1.8745,1.8716,1.8708,1.8696,1.8679,1.8654,1.8649,1.8639,1.8623,1.8622,1.8601,1.8596,1.8581,1.8569,1.8572,1.8548,1.8543,1.8542,1.8556,1.8557,1.8558,1.8561,1.8558,0,0,0,0,0,1.8748,1.8736,1.8711,1.8702,1.8694,1.8673,1.8664,1.8653,1.8635,1.8627,1.861,1.8592,1.8576,1.8566,1.855,1.8536,1.8529,1.8531,1.8532,1.8533,1.8532,1.8521,1.852,1.8522,1.8522,1.8522,0,0,1.8755,1.8737,1.8731,1.8706,1.8692,1.8678,1.8668,1.8654,1.8644,1.8625,1.8608,1.8595,1.8573,1.8558,1.855,1.8547,1.853,1.8533,1.8533,1.8532,1.852,1.852,1.852,1.8522,1.8522,1.8522,0,0,1.876,1.8746,1.8737,1.8722,1.8701,1.8686,1.8684,1.8659,1.8649,1.8632,1.8617,1.8603,1.8577,1.8561,1.855,1.8546,1.8535,1.8541,1.8546,1.8535,1.8535,1.8535,1.8531,1.853,1.8541,1.8541,1.8541,0,1.8771,1.8751,1.8733,1.872,1.8708,1.8691,1.8679,1.8666,1.864,1.8632,1.8629,1.8593,1.8578,1.8557,1.8556,1.8548,1.8543,1.8544,1.8536,1.8536,1.8535,1.8532,1.8531,1.8541,1.8541,1.8541,1.8541,0,1.8764,1.875,1.8745,1.872,1.8707,1.8696,1.8674,1.8664,1.8653,1.8638,1.8619,1.8599,1.8578,1.8572,1.8561,1.8548,1.8547,1.8541,1.8535,1.8536,1.8532,1.8531,1.8543,1.8542,1.8542,1.8542,0,0,1.8783,1.8746,1.8744,1.8732,1.8705,1.8694,1.868,1.8658,1.8649,1.8631,1.8617,1.8594,1.8587,1.8574,1.8561,1.8552,1.8547,1.8546,1.8545,1.8545,1.8528,1.8533,1.8532,1.8539,1.8539,1.8539,1.853,0,1.8783,1.8758,1.874,1.8721,1.8707,1.8688,1.8676,1.8657,1.8642,1.8627,1.861,1.8593,1.8586,1.8578,1.8568,1.855,1.8543,1.855,1.8525,1.8524,1.853,1.853,1.8535,1.8527,1.8528,1.8528,1.8528,0,1.878,1.8762,1.8742,1.8714,1.8708,1.8697,1.8674,1.866,1.8638,1.8628,1.8612,1.8598,1.858,1.8577,1.8551,1.8556,1.8544,1.8533,1.8533,1.8529,1.8526,1.8525,1.8525,1.8523,1.8526,1.8526,1.8526,0,1.8793,1.8764,1.8747,1.8737,1.8706,1.8698,1.8684,1.8662,1.8649,1.8629,1.862,1.8599,1.8587,1.8569,1.8549,1.8549,1.8524,1.852,1.8513,1.8514,1.8509,1.8509,1.8505,1.8503,1.8503,1.8503,1.8503,0,1.8794,1.8782,1.8752,1.8742,1.8727,1.8706,1.8691,1.8676,1.8655,1.864,1.8623,1.8609,1.8584,1.8566,1.855,1.8529,1.8525,1.8514,1.851,1.8515,1.8516,1.8507,1.8506,1.8503,1.8503,1.8503,1.8503,0,1.8807,1.8786,1.8767,1.8738,1.873,1.872,1.8695,1.8683,1.8666,1.8647,1.8642,1.8615,1.8593,1.8571,1.8542,1.8531,1.851,1.8505,1.8517,1.8515,1.8509,1.8509,1.8498,1.8495,1.8496,1.8496,1.8497,0,1.8808,1.8798,1.8768,1.8757,1.8744,1.8726,1.8713,1.8691,1.8677,1.8649,1.864,1.8617,1.8597,1.8562,1.854,1.8516,1.8509,1.8507,1.8506,1.851,1.8507,1.8507,1.8505,1.8507,1.8508,1.8508,1.8508,0,1.8813,1.8803,1.8785,1.8762,1.8747,1.8728,1.8709,1.87,1.8674,1.8659,1.8637,1.8621,1.859,1.8566,1.8539,1.8523,1.851,1.8508,1.8505,1.851,1.8517,1.8511,1.8518,1.8509,1.8508,1.8508,1.8508,1.8508,1.8819,1.8808,1.8784,1.8764,1.8747,1.8728,1.8715,1.8697,1.8677,1.8651,1.8638,1.8615,1.8589,1.8552,1.8536,1.8516,1.8513,1.8509,1.8508,1.8507,1.8507,1.8521,1.8511,1.8511,1.8511,1.8511,1.8511,0,1.8821,1.8804,1.8786,1.8759,1.8742,1.8732,1.8709,1.8695,1.8675,1.8653,1.8633,1.8605,1.8581,1.8556,1.853,1.8518,1.8511,1.8512,1.8512,1.8508,1.8513,1.8517,1.8518,1.8518,1.8518,1.8518,1.8518,1.8518,1.882,1.8801,1.8787,1.8758,1.8741,1.8718,1.8706,1.8688,1.867,1.864,1.862,1.8603,1.8579,1.8551,1.8527,1.852,1.8511,1.8513,1.8504,1.8508,1.8508,1.8508,1.8512,1.8511,1.8511,1.85,1.85,1.85]}]]